STARLINK-30528, 57967

Orbit data source: Space-Track

STARLINK-30528, 57967 is a payload satellite owned by SpaceX/Seattle (US) in LEO that was launched on Sat, 30 Sep 2023 UTC via an FALCON 9 launch vehicle from the Air Force Eastern Test Range (AFETR). Payload-class satellites include a variety of spacecraft equipped with specific instruments for various scientific and technological missions. These include communications satellites like Starlink; space stations such as the ISS; scientific satellites like the Hubble; Earth observation satellites from companies like Planet Labs, Umbra, and HawkEye 360; GPS; miniature CubeSats for education and research; and military/defense satellites.

Loading next visibility...
Identifier
57967, 2023-151D
Orbit
LEO
Country
Flag of USUS
Related business
Manufacturer
SpaceX/Seattle
Mission
Operational Commercial Communications
Bus & Motor
STARLINK V2M, Unknown motor
Mass
730 kg wet, ~700 kg dry
Launch date (UTC)
2023-09-30 (3 years ago)
Launch vehicle
FALCON 9
Launch site
Air Force Eastern Test Range (AFETR)
Object type
Payload
Rocket body
Debris
Shape & HBR
Box + 2 Pan, 17.7 m
Radar Cross Section
33.884 m², Large (>1 m²)

Expand to show TLE details & history
Last TLE update: 20 hours ago

TLE from 20 hours ago
0 STARLINK-30528
1 57967U 23151D   26129.66421742  .00002222  00000-0  90249-4 0  9994
2 57967  43.0065 351.4850 0001204 259.0172 101.0545 15.27581356145091
Epoch: 2026-05-09T15:56Z
TLE epoch observation values (Epoch: 2026-05-09T15:56:28.385Z)
Latitude
0.00005°
Longitude
-115.11163°
Altitude
482.98 km
Speed
7.626 km/s
True Right ascension
23h 25m 56s
True Declination
0° 00' 00"
Sunlit
Object was in daylight at epoch
Visualization orbit readout
Latitude
Unknown
Longitude
Unknown
Altitude
Unknown
Speed
Unknown
Apparent Right ascension
Unknown
Apparent Declination
Unknown
Sunlit
N/A
Visualization observer readout
Local Sidereal Time
19:51:05
Azimuth
Unknown
Elevation
Unknown
Doppler factor
Unknown
Orbital elements
Apogee altitude
485.815 km
Perigee altitude
484.163 km
Semi-major axis
6,863.126 km
Eccentricity
0.00012
Inclination
43.0065°
RAAN
351.485°
Arg. of periapsis
259.0172°
True anomaly
101.06804°
Mean anomaly
101.0545°
Eccentric anomaly
101.06127°
Mean motion
3.81733 °/min
Orbital period
94.31 mins
BSTAR
0.000090249
Loading maneuver chart data...
Computing Atmospheric mass density...
Loading historical data...
Loading historical data...
Loading historical data...
Loading historical data...
Loading historical data...
Loading historical data...
Loading historical data...

Documentation

Showing up to 5 results
|